This is the latest recevied weather packets stored in our database for station/object KC5DAQ-27. If no packets are shown the sender has not sent any weather packets the latest 1 day(s).
| Time | Temp. | Humidity | Pressure | Rain* | Wind** | Luminosity | Snow |
|---|---|---|---|---|---|---|---|
| 1778035367 | 25.56° C | 87% | 999.7 hPa | 0 mm | 3.13 m/s, 180° | 0 W/m² | - |
| 1778035307 | 25.56° C | 87% | 999.7 hPa | 0 mm | 3.13 m/s, 186° | 0 W/m² | - |
| 1778035246 | 25.56° C | 87% | 999.7 hPa | 0 mm | 2.68 m/s, 196° | 0 W/m² | - |
| 1778035187 | 25.56° C | 87% | 999.6 hPa | 0 mm | 2.68 m/s, 192° | 0 W/m² | - |
| 1778035128 | 25.56° C | 87% | 999.6 hPa | 0 mm | 3.13 m/s, 182° | 0 W/m² | - |
| 1778035066 | 25.56° C | 87% | 999.6 hPa | 0 mm | 3.13 m/s, 179° | 0 W/m² | - |
| 1778035006 | 25.56° C | 87% | 999.5 hPa | 0 mm | 3.58 m/s, 182° | 0 W/m² | - |
| 1778034946 | 25.56° C | 87% | 999.5 hPa | 0 mm | 3.58 m/s, 164° | 0 W/m² | - |
| 1778034887 | 25.56° C | 87% | 999.5 hPa | 0 mm | 3.58 m/s, 151° | 0 W/m² | - |
| 1778034826 | 25.56° C | 87% | 999.4 hPa | 0 mm | 3.58 m/s, 188° | 0 W/m² | - |
| 1778034766 | 25.56° C | 87% | 999.3 hPa | 0 mm | 3.13 m/s, 189° | 0 W/m² | - |
| 1778034707 | 25.56° C | 87% | 999.3 hPa | 0 mm | 4.02 m/s, 186° | 0 W/m² | - |
| 1778034646 | 25.56° C | 87% | 999.2 hPa | 0 mm | 4.02 m/s, 159° | 0 W/m² | - |
| 1778034586 | 25.56° C | 87% | 999.2 hPa | 0 mm | 3.13 m/s, 173° | 0 W/m² | - |
| 1778034527 | 25.56° C | 87% | 999.2 hPa | 0 mm | 3.58 m/s, 173° | 0 W/m² | - |
| 1778034467 | 25.56° C | 87% | 999.2 hPa | 0 mm | 3.58 m/s, 169° | 0 W/m² | - |
| 1778034406 | 25.56° C | 87% | 999.1 hPa | 0 mm | 3.58 m/s, 206° | 0 W/m² | - |
| 1778034346 | 25.56° C | 87% | 999.1 hPa | 0 mm | 4.02 m/s, 161° | 0 W/m² | - |
| 1778034287 | 25.56° C | 87% | 999.1 hPa | 0 mm | 3.58 m/s, 178° | 0 W/m² | - |
| 1778034225 | 25.56° C | 86% | 999.1 hPa | 0 mm | 3.58 m/s, 175° | 0 W/m² | - |
| 1778034166 | 25.56° C | 86% | 999.1 hPa | 0 mm | 3.13 m/s, 197° | 0 W/m² | - |
| 1778034107 | 25.56° C | 86% | 999 hPa | 0 mm | 3.58 m/s, 193° | 0 W/m² | - |
| 1778034048 | 25.56° C | 86% | 999.1 hPa | 0 mm | 3.58 m/s, 166° | 0 W/m² | - |
| 1778033986 | 25.56° C | 86% | 999.1 hPa | 0 mm | 3.13 m/s, 158° | 0 W/m² | - |
| 1778033925 | 25.56° C | 86% | 999 hPa | 0 mm | 3.58 m/s, 180° | 0 W/m² | - |
* Rain latest hour (hover to see other rain measurements)
** Current wind speed in m/s (hover to see current wind gust speed)